EW9467 Weather Reports


Display with metric or nautical units.
time (UTC)temp
F
wind
direction
speed
MPH
gust
MPH
rain 1hr
in
rain 24hr
in
rain mn
in
humidity
%
barometer
mb
20260504041640 48 285 0.0 0.0 0.00 0.00 0.00 88 1016.5
20260504041137 49 285 0.0 0.0 0.00 0.00 0.00 87 1016.4
20260504040637 49 285 0.0 0.0 0.00 0.00 0.00 87 1016.4
20260504035638 49 284 0.0 0.0 0.00 0.00 0.00 87 1016.4
20260504035136 49 285 0.0 0.0 0.00 0.00 0.00 86 1016.5
20260504034637 49 285 0.0 0.0 0.00 0.00 0.00 86 1016.4
20260504033637 50 284 0.0 0.0 0.00 0.00 0.00 85 1016.6
20260504033137 50 285 0.0 0.0 0.00 0.00 0.00 85 1016.6
20260504032637 50 284 0.0 0.0 0.00 0.00 0.00 85 1016.6
20260504032137 50 284 0.0 0.0 0.00 0.00 0.00 84 1016.6
20260504031635 50 285 0.0 0.0 0.00 0.00 0.00 84 1016.5
20260504031133 51 284 0.0 0.0 0.00 0.00 0.00 83 1016.5
20260504030633 51 284 0.0 0.0 0.00 0.00 0.00 83 1016.4
20260504025634 51 285 0.0 0.0 0.00 0.00 0.00 83 1016.4
20260504025133 51 284 0.0 0.0 0.00 0.00 0.00 82 1016.4
20260504024633 51 284 0.0 0.0 0.00 0.00 0.00 82 1016.4
20260504023634 52 285 0.0 0.0 0.00 0.00 0.00 80 1016.3
20260504023133 52 284 0.0 0.0 0.00 0.00 0.00 80 1016.2
20260504022130 53 285 0.0 0.0 0.00 0.00 0.00 79 1016.1
20260504020631 53 285 0.0 0.0 0.00 0.00 0.00 77 1015.8
20260504020132 54 285 0.0 0.0 0.00 0.00 0.00 76 1015.7
20260504015630 54 284 0.0 0.0 0.00 0.00 0.00 75 1015.7
20260504015128 54 285 0.0 0.0 0.00 0.00 0.00 74 1015.6
20260504014629 55 285 0.0 0.0 0.00 0.00 0.00 72 1015.4
20260504014128 55 284 0.0 0.0 0.00 0.00 0.00 72 1015.3
20260504013629 55 284 0.0 0.0 0.00 0.00 0.00 71 1015.3
20260504013129 56 285 0.0 0.0 0.00 0.00 0.00 71 1015.2
20260504012629 56 284 0.0 0.0 0.00 0.00 0.00 70 1015.1
20260504012128 56 285 0.0 0.0 0.00 0.00 0.00 69 1015.1
20260504011628 57 285 0.0 0.0 0.00 0.00 0.00 69 1015.0
20260504010629 58 284 0.0 0.0 0.00 0.00 0.00 66 1015.0
20260504005628 59 285 0.0 0.0 0.00 0.00 0.00 64 1014.9
20260504005130 59 285 0.0 0.0 0.00 0.00 0.00 62 1014.9
20260504004630 60 284 0.0 0.0 0.00 0.00 0.00 61 1014.8
20260504004128 60 285 0.0 0.0 0.00 0.00 0.00 60 1014.7
20260504003628 61 285 0.0 0.0 0.00 0.00 0.00 58 1014.7
20260504003128 62 284 0.0 0.0 0.00 0.00 0.00 57 1014.6
20260504002127 64 285 0.0 0.0 0.00 0.00 0.00 53 1014.6
20260504001626 64 284 0.0 0.0 0.00 0.00 0.00 52 1014.6
20260504000628 66 285 0.0 0.0 0.00 0.00 0.00 45 1014.5
20260503235127 68 284 0.0 1.0 0.00 0.00 0.00 43 1014.4
20260503234625 68 285 0.0 1.0 0.00 0.00 0.00 43 1014.5
20260503234125 69 284 0.0 1.0 0.00 0.00 0.00 39 1014.5
20260503233626 69 288 0.0 0.0 0.00 0.00 0.00 42 1014.5
20260503233124 69 288 0.0 1.0 0.00 0.00 0.00 41 1014.5
20260503232624 70 267 0.0 1.0 0.00 0.00 0.00 38 1014.5
20260503231624 70 277 1.0 4.0 0.00 0.00 0.00 37 1014.5
20260503231125 71 298 1.0 4.0 0.00 0.00 0.00 35 1014.5
20260503230622 71 267 0.0 2.0 0.00 0.00 0.00 35 1014.6
20260503225622 71 311 0.0 1.0 0.00 0.00 0.00 35 1014.6
20260503225120 71 298 0.0 2.0 0.00 0.00 0.00 35 1014.5
20260503224621 71 248 1.0 3.0 0.00 0.00 0.00 35 1014.6
20260503224122 71 310 1.0 3.0 0.00 0.00 0.00 35 1014.6
20260503223620 72 211 0.0 3.0 0.00 0.00 0.00 35 1014.5
20260503223120 72 248 0.0 3.0 0.00 0.00 0.00 34 1014.5
20260503222120 72 338 0.0 4.0 0.00 0.00 0.00 37 1014.6
20260503221620 73 277 0.0 4.0 0.00 0.00 0.00 35 1014.6
20260503221121 73 275 0.0 2.0 0.00 0.00 0.00 35 1014.7
20260503220620 72 242 0.0 4.0 0.00 0.00 0.00 34 1014.7
20260503215619 72 328 0.0 3.0 0.00 0.00 0.00 34 1014.8
20260503215118 72 329 0.0 2.0 0.00 0.00 0.00 35 1014.9
20260503214618 72 298 0.0 3.0 0.00 0.00 0.00 36 1014.9
20260503214118 72 298 0.0 3.0 0.00 0.00 0.00 34 1014.8
20260503213616 72 44 0.0 4.0 0.00 0.00 0.00 37 1014.8
20260503213116 72 327 0.0 4.0 0.00 0.00 0.00 34 1015.0
20260503212616 72 319 0.0 4.0 0.00 0.00 0.00 39 1015.0
20260503212116 72 317 1.0 3.0 0.00 0.00 0.00 36 1015.0
20260503211616 72 317 1.0 3.0 0.00 0.00 0.00 35 1015.0
20260503211116 72 327 0.0 4.0 0.00 0.00 0.00 35 1015.0
20260503210616 71 319 0.0 4.0 0.00 0.00 0.00 36 1015.1
20260503210115 71 324 1.0 3.0 0.00 0.00 0.00 36 1015.1
20260503205613 71 330 1.0 10.0 0.00 0.00 0.00 36 1015.2
20260503205114 71 309 1.0 10.0 0.00 0.00 0.00 37 1015.2
20260503204613 71 301 0.0 3.0 0.00 0.00 0.00 37 1015.2
20260503204114 71 334 1.0 4.0 0.00 0.00 0.00 35 1015.3
20260503203614 72 313 0.0 4.0 0.00 0.00 0.00 34 1015.3
20260503203113 72 300 0.0 2.0 0.00 0.00 0.00 34 1015.3
20260503202111 71 319 1.0 6.0 0.00 0.00 0.00 35 1015.4
20260503201612 71 284 1.0 4.0 0.00 0.00 0.00 35 1015.7
20260503201111 71 323 1.0 7.0 0.00 0.00 0.00 36 1015.7
20260503200613 71 273 1.0 7.0 0.00 0.00 0.00 35 1015.8
20260503200112 72 317 0.0 3.0 0.00 0.00 0.00 36 1015.8
20260503195612 72 299 0.0 3.0 0.00 0.00 0.00 35 1015.9
20260503195111 71 304 0.0 3.0 0.00 0.00 0.00 36 1015.9
20260503194612 71 291 0.0 3.0 0.00 0.00 0.00 38 1016.0
20260503194113 71 316 0.0 1.0 0.00 0.00 0.00 38 1016.1
20260503193611 70 311 1.0 3.0 0.00 0.00 0.00 37 1016.2
20260503193112 70 273 1.0 3.0 0.00 0.00 0.00 36 1016.4
20260503192612 71 290 0.0 3.0 0.00 0.00 0.00 37 1016.4
20260503192112 71 290 0.0 1.0 0.00 0.00 0.00 36 1016.5
20260503191611 71 101 0.0 1.0 0.00 0.00 0.00 38 1016.6
20260503191113 71 49 0.0 1.0 0.00 0.00 0.00 37 1016.7
20260503190611 70 341 0.0 2.0 0.00 0.00 0.00 36 1016.7
20260503190109 70 308 0.0 2.0 0.00 0.00 0.00 36 1016.8
20260503185609 69 175 1.0 2.0 0.00 0.00 0.00 37 1016.9
20260503185107 69 336 1.0 2.0 0.00 0.00 0.00 41 1017.1
20260503184607 69 324 1.0 2.0 0.00 0.00 0.00 39 1017.1
20260503184105 69 267 0.0 3.0 0.00 0.00 0.00 38 1017.2
20260503183605 69 284 0.0 3.0 0.00 0.00 0.00 38 1017.3
20260503183107 68 142 0.0 3.0 0.00 0.00 0.00 35 1017.4
20260503182602 68 348 1.0 4.0 0.00 0.00 0.00 36 1017.5
20260503181101 68 296 0.0 3.0 0.00 0.00 0.00 39 1017.6
20260503180601 68 312 1.0 3.0 0.00 0.00 0.00 37 1017.6
20260503180101 68 300 1.0 6.0 0.00 0.00 0.00 41 1017.6
20260503175559 67 15 1.0 8.0 0.00 0.00 0.00 37 1017.6
20260503175059 67 265 1.0 8.0 0.00 0.00 0.00 39 1017.7
20260503174557 67 258 0.0 1.0 0.00 0.00 0.00 43 1017.7
20260503174058 67 309 0.0 3.0 0.00 0.00 0.00 44 1017.7
20260503173057 67 238 0.0 2.0 0.00 0.00 0.00 43 1017.8
20260503172557 67 173 0.0 3.0 0.00 0.00 0.00 41 1017.9
20260503172058 67 270 1.0 3.0 0.00 0.00 0.00 40 1018.0
20260503171555 67 221 0.0 2.0 0.00 0.00 0.00 40 1018.0
20260503171056 67 278 0.0 1.0 0.00 0.00 0.00 42 1018.0
20260503170556 66 199 0.0 1.0 0.00 0.00 0.00 40 1018.1
20260503150551 62 321 0.0 0.0 0.00 0.00 0.00 46 1018.7
20260503131045 55 326 0.0 0.0 0.00 0.00 0.00 70 1018.2
20260503130542 55 355 0.0 0.0 0.00 0.00 0.00 70 1018.2
20260503110538 41 9 0.0 0.0 0.00 0.02 0.00 93 1017.4
20260503081029 43 5 0.0 0.0 0.00 0.05 0.00 92 1016.1
20260503080529 43 5 0.0 0.0 0.00 0.05 0.00 92 1016.1
20260503072529 43 5 0.0 0.0 0.00 0.06 0.00 91 1015.8
20260503072029 43 0 0.0 0.0 0.00 0.06 0.00 91 1015.7
20260503071529 43 0 0.0 0.0 0.00 0.06 0.00 91 1015.7
20260503071030 44 5 0.0 0.0 0.00 0.07 0.00 91 1015.6
20260503070529 44 5 0.0 0.0 0.00 0.07 0.00 91 1015.6
20260503054524 45 5 0.0 0.0 0.00 0.11 0.00 90 1015.4
20260503053021 45 5 0.0 0.0 0.00 0.12 0.00 89 1015.4
20260503052522 45 0 0.0 0.0 0.00 0.12 0.00 89 1015.3
20260503052022 45 5 0.0 0.0 0.00 0.12 0.00 89 1015.4
20260503051521 45 5 0.0 0.0 0.00 0.12 0.00 89 1015.3
20260503051021 45 5 0.0 0.0 0.00 0.12 0.00 89 1015.3
20260503050521 46 0 0.0 0.0 0.00 0.12 0.00 88 1015.2
20260503050019 46 5 0.0 0.0 0.00 0.12 0.00 88 1015.1
20260503045520 46 5 0.0 0.0 0.00 0.12 0.00 88 1015.1
20260503045019 46 0 0.0 0.0 0.00 0.12 0.00 88 1015.0
20260503044518 46 5 0.0 0.0 0.00 0.12 0.00 88 1015.0
20260503043019 46 0 0.0 0.0 0.00 0.12 0.00 87 1014.9
20260503042519 46 0 0.0 0.0 0.00 0.12 0.00 87 1014.9